Regional Weather Roundup
Issued by NWS Austin/San Antonio, TX

Home | Current Version | Previous Version | Text Only | Print | Product List | Glossary On
Versions: 1 2 3 4 5 6 7 8 9 10 11 12 13 14 15 16 17 18 19 20 21 22 23 24 25 26 27 28 29 30 31 32 33 34 35 36 37 38 39 40 41 42 43 44 45 46 47 48 49 50
000
ASUS44 KEWX 151710
RWREWX
SOUTH TEXAS REGIONAL WEATHER ROUNDUP
NATIONAL WEATHER SERVICE AUSTIN/SAN ANTONIO TX
1200 PM CDT SAT JUN 15 2019

NOTE: "FAIR" INDICATED FEW OR NO CLOUDS BELOW 12,000 FEET WITH NO
SIGNIFICANT WEATHER AND/OR OBSTRUCTIONS TO VISIBILITY.

* - THESE STATIONS ARE NOT NWS OR FAA STATIONS...AND ARE NOT SUBJECT
    TO NWS AND FAA QUALITY CONTROL.

TXZ171-172-183>190-151800-
TEXAS HILL COUNTRY AND EDWARDS PLATEAU

CITY           SKY/WX    TMP DP  RH WIND       PRES   REMARKS
JUNCTION       SUNNY     86  70  58 S16G24    29.91S HX  90
*LLANO         MOSUNNY   88  72  58 S10G16    29.93S HX  94
BURNET         MOSUNNY   85  69  58 S14G22    29.94S
*HORSESHOE BAY MOSUNNY   88  70  55 S12G22    29.92S HX  92
*KERRVILLE     CLOUDY    84  73  70 S15       29.94S HX  90
*FREDERICKSBRG MOSUNNY   83  68  60 S15       29.94S
*ROCKSPRINGS   CLOUDY    79  70  73 S16G23    30.01R
*BOERNE STAGE  PTSUNNY   81  72  74 S12       29.95S
*CASTROVILLE   PTSUNNY   87  70  56 S14       29.93S HX  91
HONDO          MOSUNNY   88  73  61 SE13      29.92R HX  95
*UVALDE        SUNNY     88  73  62 SE15      29.91S HX  96
DEL RIO        MOSUNNY   87  73  62 SE15      29.87R HX  94
LAUGHLIN AFB   NOT AVBL
CARRIZO SPRGS  SUNNY     91  70  49 S15G22    29.85F HX  97
$$

TXZ173-191>194-202-209-217>225-228-151800-
CENTRAL AND SOUTH CENTRAL TEXAS

CITY           SKY/WX    TMP DP  RH WIND       PRES   REMARKS
GEORGETOWN     PTSUNNY   86  71  60 S17G25    29.93S HX  91
AUSTIN/BERGSTM PTSUNNY   89  74  60 S17G23    29.91S HX  98
AUSTIN/MABRY   PTSUNNY   88  72  58 VRB7G18   29.93S HX  94
*AUSTIN/EXEC   MOSUNNY   86  72  62 SW10G18   29.93S HX  92
*LAGO VISTA    PTSUNNY   84  71  64 SW14      29.95S
SAN MARCOS     PTSUNNY   90  74  59 S16G23    29.93S HX  99
NEW BRAUNFELS  PTSUNNY   88  72  58 S16G22    29.91S HX  94
RANDOLPH AFB   PTSUNNY   86  73  66 S15G21    29.92F HX  93
PT SAN ANTONIO MOSUNNY   87  74  65 S12       29.90  HX  95
SAN ANTONIO    PTSUNNY   86  72  62 S14       29.92F HX  92
STINSON FIELD  PTSUNNY   89  70  53 S12       29.89F HX  94
*LA GRANGE     MOSUNNY   91  74  58 S10       29.91S HX 100
*GIDDINGS      PTSUNNY   91  73  55 S17       29.94S HX 100
*GONZALES      PTSUNNY   91  74  57 S16G22    29.92S HX 100
$$

TXZ163>164-176>182-195>201-210>213-226-227-235-151800-
SOUTHEAST TEXAS

CITY           SKY/WX    TMP DP  RH WIND       PRES   REMARKS
COLLEGE STN    MOSUNNY   90  73  57 S18G25    29.92F HX  98
*BRYAN         MOSUNNY   90  75  60 S15G25    29.93F HX 100
*CALDWELL      PTSUNNY   90  73  56 S21G29    29.93S HX  98
*CROCKETT        N/A     88  73  62 SW9G22    29.98S HX  96
*BRENHAM       MOSUNNY   91  74  57 S16       29.94F HX 101
HUNTSVILLE     MOSUNNY   92  71  50 S16G24    29.95F HX  98
CONROE         SUNNY     91  72  53 S16G24    29.96F HX  98
HOUSTON BUSH   LGT RAIN  92  75  57 SW9G17    29.95F HX 103
HOUSTON HOBBY  PTSUNNY   91  73  55 SW16      29.96S HX  99
*HOUSTON SW AP FAIR      88  76  67 S7        29.98S HX  98
PEARLAND       FAIR      90  74  59 S16G23    29.98S HX  99
HOUSTON HOOKS  FAIR      89  73  59 S9        29.95F HX  97
ELLINGTON FLD  PTSUNNY   91  73  55 S16       29.96R HX 100
SUGAR LAND     PTSUNNY   91  77  63 S14       29.95F HX 104
*HOUSTON EXEC  FAIR      90  75  62 S14       29.96F HX 100
*CLEVELAND MUN FAIR      92  76  59 S9        29.97F HX 103
*WHARTON       PTSUNNY   89  73  58 S18       29.97R HX  96
*COLUMBUS      PTSUNNY   90  72  55 S13G20    29.95F HX  97
*EAGLE LAKE    MOSUNNY   92  78  64 S14G20    29.94  HX 106
$$

TXZ214>216-236>238-151800-
THE UPPER TEXAS COAST

CITY           SKY/WX    TMP DP  RH WIND       PRES   REMARKS
*ORANGE        FAIR      83  76  80 S9        30.03R HX  91
PORT ARTHUR    PTSUNNY   91  74  57 S16G26    29.99S HX 100
GALVESTON      FAIR      86  76  71 S17G26    30.00R HX  96
ANGLETON       FAIR      89  77  67 S21G28    29.98R HX 101
*BAY CITY      CLOUDY    90  80  72 S15G24    29.97S HX 106
PALACIOS       SUNNY     90  75  61 S20G26    29.96S HX 100
$$

TXZ229>234-239>247-151800-
TEXAS COASTAL BEND AND RIO GRANDE PLAINS

CITY           SKY/WX    TMP DP  RH WIND       PRES   REMARKS
VICTORIA       SUNNY     90  75  61 S16       29.94S HX 100
*BEEVILLE      PTSUNNY   94  70  44 S18G24    29.92S HX 100
ROCKPORT       MOSUNNY   88  76  67 S14G21    29.93F HX  99
*PORT ARANSAS    N/A     88  77  70 S17G24    29.95S HX  99
*PORT LAVACA   MOSUNNY   91  78  66 S15G23    29.95S HX 105
*INGLESIDE     MOSUNNY   91  77  64 S16G23    29.93F HX 103
CORPUS CHRISTI PTSUNNY   90  76  63 S17       29.92S HX 101
CORPUS NAS     MOSUNNY   88  76  67 S22G29    29.92F HX  99
*ROBSTOWN      PTSUNNY   87  76  68 S14       29.92F HX  97
ALICE          SUNNY     93  73  52 S16       29.90F HX 102
KINGSVILLE NAS MOSUNNY   92  75  57 S17G25    29.90F HX 103
COTULLA        SUNNY     93  69  45 S14G23    29.88S HX  98
LAREDO         SUNNY     93  70  46 S18       29.87S HX  99
$$

TXZ248>255-151800-
DEEP SOUTH TEXAS

CITY           SKY/WX    TMP DP  RH WIND       PRES   REMARKS
BROWNSVILLE    PTSUNNY   94  75  54 SE21      29.92F HX 105
PORT ISABEL    FAIR      91  71  51 S20G28    29.92F HX  97
HARLINGEN      MOSUNNY   92  74  55 S21       29.91F HX 101
*HEBBRONVILLE  MOSUNNY   91  67  45 S17G23    29.91S HX  94
MCALLEN        MOSUNNY   92  73  53 S17       29.91F HX 100
*WESLACO       PTSUNNY   91  73  55 S14G23    29.91S HX  98
FALFURRIAS     SUNNY     93  70  48 S16       29.90F HX  99
EDINBURG       FAIR      93  69  45 S15G21    29.91F HX  98
*ZAPATA        FAIR      93  67  43 SE14G25   29.89S HX  96
$$

TXZ213>215-236>238-242>244-246-247-251-254-255-151800-
CMAN STATIONS

STATION/POSITION TIME  TEMP    WIND        PRES    WAVE
                       AIR SEA DIR/SP/G            HT/PER
                 (UTC) (F)     (DEG/KT/KT) (MB)    (FT/S)
PORT ARANSAS     1700   84 85  170/ 23/ 25 1013.5
$$




USA.gov is the U.S. government's official web portal to all federal, state and local government web resources and services.